TimeEST,TemperatureF,Dew PointF,Humidity,Sea Level PressureIn,VisibilityMPH,Wind Direction,Wind SpeedMPH,Gust SpeedMPH,PrecipitationIn,Events,Conditions,WindDirDegrees,DateUTC
12:15 AM,35.6,35.6,100,29.80,4.0,Calm,Calm,-,N/A,,Clear,0,2013-02-14 05:15:00
12:35 AM,35.6,35.6,100,29.82,3.0,Calm,Calm,-,N/A,,Clear,0,2013-02-14 05:35:00
12:55 AM,35.6,35.6,100,29.83,2.0,Calm,Calm,-,N/A,,Clear,0,2013-02-14 05:55:00
1:15 AM,33.8,33.8,100,29.83,2.0,Calm,Calm,-,N/A,,Clear,0,2013-02-14 06:15:00
1:35 AM,33.8,33.8,100,29.83,2.0,Calm,Calm,-,N/A,,Mostly Cloudy,0,2013-02-14 06:35:00
1:55 AM,33.8,33.8,100,29.84,2.0,Calm,Calm,-,N/A,,Mostly Cloudy,0,2013-02-14 06:55:00
2:15 AM,33.8,33.8,100,29.84,2.5,Calm,Calm,-,N/A,,Scattered Clouds,0,2013-02-14 07:15:00
2:35 AM,33.8,33.8,100,29.85,2.0,Calm,Calm,-,N/A,,Clear,0,2013-02-14 07:35:00
2:55 AM,33.8,33.8,100,29.87,2.5,Calm,Calm,-,N/A,,Mostly Cloudy,0,2013-02-14 07:55:00
3:15 AM,33.8,33.8,100,29.87,2.5,Calm,Calm,-,N/A,,Mostly Cloudy,0,2013-02-14 08:15:00
3:35 AM,33.8,33.8,100,29.89,2.5,Calm,Calm,-,N/A,,Scattered Clouds,0,2013-02-14 08:35:00
3:55 AM,33.8,33.8,100,29.89,2.0,Calm,Calm,-,N/A,,Clear,0,2013-02-14 08:55:00
4:15 AM,32.0,32.0,100,29.90,2.0,Calm,Calm,-,N/A,,Clear,0,2013-02-14 09:15:00
4:35 AM,30.2,30.2,100,29.91,2.5,Calm,Calm,-,N/A,,Clear,0,2013-02-14 09:35:00
4:55 AM,32.0,32.0,100,29.92,3.0,Calm,Calm,-,N/A,,Scattered Clouds,0,2013-02-14 09:55:00
5:15 AM,30.2,30.2,100,29.93,3.0,Calm,Calm,-,N/A,,Clear,0,2013-02-14 10:15:00
5:35 AM,30.2,30.2,100,29.93,3.0,Calm,Calm,-,N/A,,Clear,0,2013-02-14 10:35:00
5:55 AM,30.2,30.2,100,29.94,3.0,Calm,Calm,-,N/A,,Scattered Clouds,0,2013-02-14 10:55:00
6:15 AM,30.2,30.2,100,29.95,3.0,Calm,Calm,-,N/A,,Clear,0,2013-02-14 11:15:00
6:35 AM,28.4,28.4,100,29.94,3.0,Calm,Calm,-,N/A,,Clear,0,2013-02-14 11:35:00
6:55 AM,28.4,28.4,100,29.95,3.0,Calm,Calm,-,N/A,,Clear,0,2013-02-14 11:55:00
7:15 AM,28.4,28.4,100,29.96,2.0,Calm,Calm,-,N/A,,Clear,0,2013-02-14 12:15:00
7:35 AM,26.6,26.6,100,29.97,2.5,Calm,Calm,-,N/A,,Clear,0,2013-02-14 12:35:00
7:55 AM,30.2,30.2,100,29.99,2.5,Calm,Calm,-,N/A,,Clear,0,2013-02-14 12:55:00
8:15 AM,33.8,33.8,100,30.00,2.0,Calm,Calm,-,N/A,,Clear,0,2013-02-14 13:15:00
8:35 AM,33.8,33.8,100,30.01,2.5,Calm,Calm,-,N/A,,Clear,0,2013-02-14 13:35:00
8:55 AM,35.6,35.6,100,30.01,3.0,Calm,Calm,-,N/A,,Clear,0,2013-02-14 13:55:00
9:15 AM,37.4,37.4,100,30.02,-9999.0,Calm,Calm,-,N/A,,Unknown,0,2013-02-14 14:15:00
9:35 AM,39.2,37.4,93,30.02,10.0,Calm,Calm,-,N/A,,Clear,0,2013-02-14 14:35:00
9:55 AM,41.0,37.4,87,30.02,10.0,Calm,Calm,-,N/A,,Clear,0,2013-02-14 14:55:00
10:15 AM,42.8,33.8,70,30.03,10.0,Calm,Calm,-,N/A,,Clear,0,2013-02-14 15:15:00
10:35 AM,44.6,33.8,66,30.03,10.0,Calm,Calm,-,N/A,,Clear,0,2013-02-14 15:35:00
10:55 AM,44.6,33.8,66,30.03,10.0,Calm,Calm,-,N/A,,Clear,0,2013-02-14 15:55:00
11:15 AM,46.4,33.8,62,30.02,10.0,Calm,Calm,-,N/A,,Clear,0,2013-02-14 16:15:00
11:35 AM,46.4,33.8,62,30.02,10.0,ESE,3.5,-,N/A,,Clear,120,2013-02-14 16:35:00
11:55 AM,46.4,32.0,57,30.02,10.0,South,3.5,-,N/A,,Clear,190,2013-02-14 16:55:00
12:15 PM,46.4,30.2,53,30.02,10.0,Calm,Calm,-,N/A,,Clear,0,2013-02-14 17:15:00
12:35 PM,48.2,30.2,50,30.01,10.0,NE,3.5,-,N/A,,Clear,50,2013-02-14 17:35:00
12:55 PM,48.2,33.8,58,30.01,10.0,SSW,4.6,-,N/A,,Clear,210,2013-02-14 17:55:00
1:15 PM,48.2,30.2,50,30.00,10.0,Calm,Calm,-,N/A,,Clear,0,2013-02-14 18:15:00
1:35 PM,50.0,30.2,47,29.99,10.0,Calm,Calm,-,N/A,,Clear,0,2013-02-14 18:35:00
1:55 PM,50.0,30.2,47,29.99,10.0,West,3.5,-,N/A,,Clear,270,2013-02-14 18:55:00
2:15 PM,51.8,30.2,44,29.97,10.0,SSE,3.5,-,N/A,,Clear,150,2013-02-14 19:15:00
2:35 PM,50.0,30.2,47,29.98,10.0,Calm,Calm,-,N/A,,Scattered Clouds,0,2013-02-14 19:35:00
2:55 PM,51.8,30.2,44,29.98,10.0,SSE,3.5,-,N/A,,Clear,160,2013-02-14 19:55:00
3:15 PM,53.6,28.4,38,29.98,10.0,Calm,Calm,-,N/A,,Clear,0,2013-02-14 20:15:00
3:35 PM,53.6,30.2,41,29.97,10.0,WSW,8.1,-,N/A,,Clear,240,2013-02-14 20:35:00
3:55 PM,51.8,28.4,41,29.96,10.0,Calm,Calm,-,N/A,,Clear,0,2013-02-14 20:55:00
4:15 PM,51.8,28.4,41,29.96,10.0,South,6.9,-,N/A,,Clear,170,2013-02-14 21:15:00
4:35 PM,53.6,28.4,38,29.96,10.0,South,3.5,-,N/A,,Clear,190,2013-02-14 21:35:00
4:55 PM,51.8,28.4,41,29.97,10.0,Calm,Calm,-,N/A,,Clear,0,2013-02-14 21:55:00
5:15 PM,51.8,30.2,44,29.97,10.0,Calm,Calm,-,N/A,,Clear,0,2013-02-14 22:15:00
5:35 PM,48.2,30.2,50,29.97,10.0,Calm,Calm,-,N/A,,Clear,0,2013-02-14 22:35:00
5:55 PM,46.4,30.2,53,29.97,10.0,Calm,Calm,-,N/A,,Clear,0,2013-02-14 22:55:00
6:15 PM,42.8,30.2,61,29.98,10.0,Calm,Calm,-,N/A,,Clear,0,2013-02-14 23:15:00
6:35 PM,41.0,30.2,65,29.99,10.0,Calm,Calm,-,N/A,,Clear,0,2013-02-14 23:35:00
6:55 PM,39.2,30.2,70,29.98,10.0,Calm,Calm,-,N/A,,Clear,0,2013-02-14 23:55:00
7:15 PM,37.4,32.0,81,29.99,10.0,Calm,Calm,-,N/A,,Clear,0,2013-02-15 00:15:00
7:35 PM,35.6,32.0,87,30.00,10.0,Calm,Calm,-,N/A,,Clear,0,2013-02-15 00:35:00
7:55 PM,35.6,30.2,81,30.00,10.0,Calm,Calm,-,N/A,,Clear,0,2013-02-15 00:55:00
8:15 PM,35.6,30.2,81,30.00,10.0,Calm,Calm,-,N/A,,Clear,0,2013-02-15 01:15:00
8:35 PM,35.6,30.2,81,30.00,10.0,Calm,Calm,-,N/A,,Clear,0,2013-02-15 01:35:00
8:55 PM,33.8,30.2,87,30.00,10.0,Calm,Calm,-,N/A,,Clear,0,2013-02-15 01:55:00
9:15 PM,32.0,30.2,93,30.00,10.0,Calm,Calm,-,N/A,,Clear,0,2013-02-15 02:15:00
9:35 PM,33.8,30.2,87,30.00,10.0,Calm,Calm,-,N/A,,Clear,0,2013-02-15 02:35:00
9:55 PM,33.8,28.4,81,30.00,10.0,Calm,Calm,-,N/A,,Clear,0,2013-02-15 02:55:00
10:15 PM,32.0,30.2,93,30.00,10.0,Calm,Calm,-,N/A,,Clear,0,2013-02-15 03:15:00
10:35 PM,30.2,30.2,100,30.00,10.0,Calm,Calm,-,N/A,,Clear,0,2013-02-15 03:35:00
10:55 PM,30.2,30.2,100,30.01,10.0,Calm,Calm,-,N/A,,Clear,0,2013-02-15 03:55:00
11:15 PM,30.2,30.2,100,30.02,10.0,Calm,Calm,-,N/A,,Clear,0,2013-02-15 04:15:00
11:35 PM,30.2,30.2,100,30.02,10.0,Calm,Calm,-,N/A,,Clear,0,2013-02-15 04:35:00
11:55 PM,30.2,30.2,100,30.01,10.0,Calm,Calm,-,N/A,,Clear,0,2013-02-15 04:55:00